User: anonymous   Login
Location: Unspecified
(0.0000°N, 0.0000°E)
Time: 12:44:10
(UTC+00:00)
Language:

SKYNET 4F - Orbit

View from above orbital plane
View from above orbital plane
View from above satellite
View from above satellite

Ground track
Ground track

The orbit data is extracted from the following two-line orbital elements,

1 26695U 01005B   18200.96368740 -.00000269  00000-0  00000+0 0  9995
2 26695   9.3225  33.9383 0003062  68.9561 147.7076  1.00274682 63906
Epoch (UTC): 19 July 2018 23:07:42
Eccentricity: 0.0003062
inclination: 9.3225°
perigee height: 35772 km
apogee height: 35798 km
right ascension of ascending node: 33.9383°
argument of perigee: 68.9561°
revolutions per day: 1.00274682
mean anomaly at epoch: 147.7076°
orbit number at epoch: 6390

The dashed part of the orbit path shows where the satellite is in the earth's shadow,  

DLR